�������l�o���
Date,Time,MP-1(��Sv/h),MP-2(��Sv/h),MP-3(��Sv/h),MP-4(��Sv/h),MP-5(��Sv/h),MP-6(��Sv/h),MP-7(��Sv/h),MP-8(��Sv/h),����,����(m/s),���J
2022/10/27,00:00,0.566,0.817,0.517,1.038,0.722,0.332,0.585,0.553,�k�k��,5.3,��
2022/10/27,00:10,0.568,0.816,0.519,1.041,0.721,0.333,0.586,0.553,�k��,5.5,��
2022/10/27,00:20,0.566,0.817,0.518,1.037,0.721,0.333,0.586,0.552,�k�k��,5.5,��
2022/10/27,00:30,0.568,0.818,0.518,1.036,0.723,0.333,0.586,0.553,�k�k��,5.3,��
2022/10/27,00:40,0.568,0.818,0.520,1.037,0.723,0.332,0.586,0.552,�k��,6.2,��
2022/10/27,00:50,0.567,0.817,0.519,1.038,0.721,0.332,0.586,0.553,�k�k��,6.0,��
2022/10/27,01:00,0.569,0.817,0.519,1.036,0.722,0.334,0.584,0.552,�k��,6.4,��
2022/10/27,01:10,0.567,0.817,0.519,1.037,0.723,0.333,0.586,0.552,�k��,5.9,��
2022/10/27,01:20,0.568,0.817,0.519,1.038,0.724,0.333,0.586,0.553,�k�k��,6.1,��
2022/10/27,01:30,0.568,0.816,0.519,1.037,0.723,0.333,0.586,0.553,�k�k��,6.3,��
2022/10/27,01:40,0.566,0.817,0.521,1.038,0.721,0.331,0.586,0.553,�k�k��,6.7,��
2022/10/27,01:50,0.568,0.817,0.518,1.036,0.723,0.333,0.585,0.554,�k�k��,6.5,��
2022/10/27,02:00,0.567,0.816,0.518,1.038,0.722,0.333,0.586,0.552,�k�k��,5.6,��
2022/10/27,02:10,0.567,0.817,0.518,1.039,0.722,0.332,0.588,0.553,�k�k��,6.2,��
2022/10/27,02:20,0.567,0.817,0.518,1.038,0.723,0.332,0.586,0.552,�k�k��,6.4,��
2022/10/27,02:30,0.567,0.816,0.518,1.037,0.722,0.334,0.586,0.554,�k��,7.2,��
2022/10/27,02:40,0.566,0.815,0.519,1.038,0.724,0.333,0.586,0.552,�k�k��,6.6,��
2022/10/27,02:50,0.566,0.817,0.520,1.038,0.722,0.333,0.586,0.552,�k�k��,6.3,��
2022/10/27,03:00,0.566,0.817,0.519,1.039,0.722,0.333,0.587,0.552,�k��,6.1,��
2022/10/27,03:10,0.565,0.817,0.519,1.039,0.722,0.332,0.586,0.553,�k��,6.4,��
2022/10/27,03:20,0.568,0.816,0.520,1.038,0.722,0.331,0.587,0.553,�k��,6.2,��
2022/10/27,03:30,0.567,0.818,0.518,1.038,0.723,0.333,0.583,0.553,�k��,6.3,��
2022/10/27,03:40,0.565,0.816,0.518,1.039,0.722,0.333,0.587,0.553,�k��,6.7,��
2022/10/27,03:50,0.568,0.816,0.518,1.036,0.723,0.332,0.586,0.553,�k��,6.3,��
2022/10/27,04:00,0.566,0.816,0.518,1.038,0.722,0.333,0.587,0.552,�k��,5.5,��
2022/10/27,04:10,0.567,0.818,0.519,1.037,0.721,0.333,0.584,0.554,�k��,5.8,��
2022/10/27,04:20,0.565,0.817,0.518,1.040,0.721,0.332,0.585,0.553,�k��,5.9,��
2022/10/27,04:30,0.568,0.816,0.518,1.040,0.722,0.333,0.585,0.552,�k��,5.2,��
2022/10/27,04:40,0.567,0.816,0.518,1.039,0.720,0.332,0.585,0.553,�k��,5.7,��
2022/10/27,04:50,0.567,0.815,0.518,1.036,0.721,0.333,0.586,0.554,�k��,5.6,��
2022/10/27,05:00,0.564,0.816,0.519,1.040,0.721,0.333,0.585,0.552,�k��,5.2,��
2022/10/27,05:10,0.565,0.815,0.517,1.036,0.721,0.332,0.585,0.552,�k��,5.4,��
2022/10/27,05:20,0.565,0.816,0.519,1.037,0.721,0.332,0.586,0.555,�k��,4.6,��
2022/10/27,05:30,0.567,0.816,0.518,1.038,0.722,0.332,0.583,0.553,�k��,5.0,��
2022/10/27,05:40,0.566,0.816,0.518,1.036,0.721,0.333,0.586,0.553,�k��,4.7,��
2022/10/27,05:50,0.565,0.815,0.518,1.037,0.722,0.333,0.585,0.552,�k��,4.5,��
2022/10/27,06:00,0.565,0.816,0.518,1.036,0.723,0.331,0.586,0.552,�k��,5.2,��
2022/10/27,06:10,0.566,0.817,0.519,1.039,0.722,0.332,0.585,0.553,�k�k��,4.5,��
2022/10/27,06:20,0.568,0.816,0.518,1.036,0.722,0.331,0.585,0.553,�k�k��,4.8,��
2022/10/27,06:30,0.567,0.816,0.517,1.037,0.721,0.332,0.586,0.552,�k��,4.6,��
2022/10/27,06:40,0.566,0.817,0.518,1.038,0.722,0.331,0.584,0.555,�k��,4.5,��
2022/10/27,06:50,0.564,0.816,0.519,1.036,0.722,0.332,0.584,0.554,�k��,4.6,��
2022/10/27,07:00,0.566,0.815,0.519,1.039,0.722,0.332,0.585,0.553,�k��,5.0,��
2022/10/27,07:10,0.565,0.817,0.518,1.037,0.723,0.330,0.586,0.553,�k��,4.6,��
2022/10/27,07:20,0.565,0.817,0.517,1.036,0.722,0.332,0.585,0.553,�k��,4.7,��
2022/10/27,07:30,0.567,0.819,0.518,1.038,0.720,0.332,0.586,0.553,�k�k��,3.7,��
2022/10/27,07:40,0.567,0.817,0.519,1.037,0.720,0.332,0.586,0.552,�k��,3.6,��
2022/10/27,07:50,0.569,0.817,0.517,1.039,0.720,0.332,0.586,0.555,�k��,3.5,��
2022/10/27,08:00,0.568,0.818,0.519,1.039,0.722,0.332,0.586,0.553,�k��,3.2,��
2022/10/27,08:10,0.568,0.817,0.519,1.040,0.723,0.331,0.586,0.553,�k��,2.3,��
2022/10/27,08:20,0.569,0.814,0.516,1.039,0.724,0.331,0.588,0.553,�k��,2.6,��
2022/10/27,08:30,0.568,0.814,0.518,1.040,0.723,0.332,0.587,0.553,�k��,2.3,��
2022/10/27,08:40,0.569,0.817,0.517,1.040,0.722,0.332,0.586,0.553,�k��,1.7,��
2022/10/27,08:50,0.570,0.815,0.519,1.038,0.722,0.334,0.585,0.553,�k��,2.0,��
2022/10/27,09:00,0.569,0.815,0.518,1.038,0.723,0.333,0.585,0.553,�k�k��,2.0,��
2022/10/27,09:10,0.568,0.815,0.519,1.038,0.723,0.333,0.586,0.553,�k�k��,1.9,��
2022/10/27,09:20,0.567,0.813,0.519,1.035,0.723,0.334,0.585,0.553,-,CALM,��
2022/10/27,09:30,0.569,0.817,0.520,1.036,0.725,0.333,0.584,0.554,���k��,1.7,��
2022/10/27,09:40,0.567,0.818,0.519,1.038,0.723,0.333,0.586,0.555,�k�k��,2.6,��
2022/10/27,09:50,0.569,0.814,0.519,1.040,0.723,0.333,0.585,0.556,�k��,2.0,��
2022/10/27,10:00,0.568,0.815,0.520,1.039,0.725,0.333,0.585,0.554,�k��,2.8,��
2022/10/27,10:10,0.568,0.813,0.520,1.039,0.722,0.332,0.584,0.554,�k��,2.8,��
2022/10/27,10:20,0.568,0.814,0.520,1.039,0.721,0.333,0.586,0.554,�k�k��,2.9,��
2022/10/27,10:30,0.569,0.815,0.519,1.038,0.720,0.333,0.586,0.554,���k��,3.1,��
2022/10/27,10:40,0.568,0.818,0.518,1.038,0.722,0.331,0.586,0.552,�k��,2.9,��
2022/10/27,10:50,0.570,0.817,0.519,1.041,0.717,0.333,0.586,0.555,�k��,3.1,��
2022/10/27,11:00,0.569,0.816,0.519,1.040,-,0.333,0.586,0.554,���k��,3.5,��
2022/10/27,11:10,0.568,0.818,0.518,1.040,-,0.333,0.585,0.555,���k��,3.6,��
2022/10/27,11:20,0.570,0.817,0.519,1.039,-,0.331,0.586,0.553,��,3.4,��
2022/10/27,11:30,0.569,0.817,0.518,1.039,-,0.330,0.585,0.555,���k��,3.4,��
2022/10/27,11:40,0.570,0.817,0.517,1.039,-,0.332,0.585,0.554,���k��,3.0,��
2022/10/27,11:50,0.569,0.816,0.519,1.040,-,0.332,0.587,0.554,��,3.4,��
2022/10/27,12:00,0.569,0.819,0.520,1.039,-,0.333,0.585,0.554,��,3.2,��
2022/10/27,12:10,0.568,0.818,0.519,1.039,-,0.336,0.587,0.553,��,3.0,��
2022/10/27,12:20,0.569,0.820,0.520,1.039,-,0.335,0.586,0.555,���쓌,2.3,��
2022/10/27,12:30,0.569,0.820,0.519,1.040,-,0.335,0.587,0.554,���쓌,3.0,��
2022/10/27,12:40,0.570,0.821,0.521,1.038,-,0.334,0.586,0.552,���쓌,2.8,��
2022/10/27,12:50,0.570,0.820,0.521,1.037,0.723,0.334,0.584,0.552,��,3.3,��
2022/10/27,13:00,0.570,0.818,0.521,1.039,0.725,0.333,0.586,0.551,��,2.5,��
2022/10/27,13:10,0.569,0.819,0.521,1.040,0.724,0.334,0.586,0.553,���쓌,2.6,��
2022/10/27,13:20,0.570,0.818,0.521,1.040,0.725,0.334,0.586,0.553,���쓌,3.2,��
2022/10/27,13:30,0.569,0.817,0.520,1.039,0.725,0.333,0.585,0.553,��,3.1,��
2022/10/27,13:40,0.570,0.817,0.518,1.041,0.726,0.335,0.585,0.552,���쓌,2.6,��
2022/10/27,13:50,0.571,0.819,0.520,1.039,0.726,0.335,0.587,0.552,���쓌,2.6,��
2022/10/27,14:00,0.571,0.818,0.519,1.039,0.727,0.333,0.587,0.552,���쓌,2.6,��
2022/10/27,14:10,0.570,0.817,0.520,1.040,0.725,0.333,0.588,0.552,���쓌,2.9,��
2022/10/27,14:20,0.567,0.817,0.520,1.041,0.727,0.335,0.584,0.553,���쓌,2.2,��
2022/10/27,14:30,0.569,0.817,0.519,1.042,0.724,0.335,0.585,0.552,���쓌,2.0,��
2022/10/27,14:40,0.568,0.819,0.519,1.038,0.726,0.334,0.585,0.551,�쓌,2.3,��
2022/10/27,14:50,0.569,0.817,0.520,1.040,0.726,0.335,0.586,0.551,���쓌,1.5,��
2022/10/27,15:00,0.570,0.818,0.521,1.040,0.724,0.335,0.585,0.550,���쓌,1.5,��
2022/10/27,15:10,0.569,0.821,0.520,1.041,0.724,0.335,0.585,0.552,���쓌,1.5,��
2022/10/27,15:20,0.569,0.819,0.522,1.039,0.726,0.334,0.585,0.553,���쓌,1.7,��
2022/10/27,15:30,0.570,0.821,0.522,1.040,0.725,0.334,0.586,0.552,���쓌,1.5,��
2022/10/27,15:40,0.569,0.823,0.522,1.039,0.726,0.335,0.585,0.554,���k��,0.9,��
2022/10/27,15:50,0.573,0.824,0.522,1.041,0.728,0.334,0.586,0.551,��,1.5,��
2022/10/27,16:00,0.573,0.824,0.522,1.040,0.726,0.334,0.586,0.555,��,2.6,��
2022/10/27,16:10,0.570,0.824,0.522,1.040,0.726,0.334,0.585,0.555,��,1.2,��
2022/10/27,16:20,0.572,0.822,0.521,1.039,0.727,0.334,0.586,0.556,��,1.4,��
2022/10/27,16:30,0.572,0.826,0.522,1.039,0.728,0.334,0.587,0.555,�k��,0.6,��
2022/10/27,16:40,0.574,0.824,0.521,1.041,0.726,0.335,0.585,0.555,�k,0.8,��
2022/10/27,16:50,0.572,0.824,0.524,1.042,0.729,0.335,0.586,0.553,�k�k��,1.2,��
2022/10/27,17:00,0.572,0.824,0.522,1.039,0.729,0.335,0.587,0.554,�k�k��,1.7,��
2022/10/27,17:10,0.570,0.824,0.523,1.043,0.727,0.334,0.587,0.553,�k��,2.2,��
2022/10/27,17:20,0.573,0.824,0.522,1.041,0.726,0.335,0.586,0.554,�k��,1.9,��
2022/10/27,17:30,0.571,0.822,0.523,1.039,0.727,0.335,0.586,0.554,�k��,1.9,��
2022/10/27,17:40,0.571,0.823,0.521,1.039,0.727,0.335,0.588,0.554,�k��,2.3,��
2022/10/27,17:50,0.571,0.824,0.522,1.041,0.726,0.334,0.585,0.555,�k��,2.0,��
2022/10/27,18:00,0.573,0.824,0.522,1.041,0.727,0.335,0.587,0.554,�k�k��,1.5,��
2022/10/27,18:10,0.574,0.824,0.522,1.040,0.727,0.335,0.587,0.554,�k,1.2,��
2022/10/27,18:20,0.573,0.822,0.522,1.040,0.728,0.335,0.587,0.554,�k�k��,1.2,��
2022/10/27,18:30,0.572,0.823,0.521,1.041,0.727,0.335,0.587,0.553,�k��,2.3,��
2022/10/27,18:40,0.572,0.823,0.523,1.039,0.727,0.334,0.587,0.553,�k��,2.3,��
2022/10/27,18:50,0.574,0.824,0.524,1.039,0.727,0.334,0.587,0.554,���k��,2.3,��
2022/10/27,19:00,0.572,0.824,0.521,1.042,0.729,0.334,0.589,0.554,���k��,2.0,��
2022/10/27,19:10,0.570,0.822,0.520,1.041,0.728,0.333,0.587,0.553,���k��,2.0,��
2022/10/27,19:20,0.571,0.823,0.522,1.041,0.728,0.333,0.587,0.554,���k��,1.7,��
2022/10/27,19:30,0.571,0.823,0.522,1.041,0.726,0.334,0.586,0.553,���k��,1.5,��
2022/10/27,19:40,0.570,0.821,0.521,1.041,0.726,0.333,0.587,0.554,��,1.4,��
2022/10/27,19:50,0.573,0.823,0.521,1.040,0.728,0.335,0.587,0.555,���쐼,1.2,��
2022/10/27,20:00,0.571,0.821,0.520,1.040,0.728,0.335,0.587,0.554,���쐼,0.9,��
2022/10/27,20:10,0.572,0.822,0.521,1.041,0.728,0.334,0.587,0.553,��,1.2,��
2022/10/27,20:20,0.572,0.823,0.522,1.040,0.728,0.334,0.589,0.553,��,1.2,��
2022/10/27,20:30,0.570,0.824,0.520,1.040,0.727,0.333,0.587,0.553,��,1.5,��
2022/10/27,20:40,0.572,0.822,0.520,1.042,0.728,0.335,0.589,0.553,��,2.0,��
2022/10/27,20:50,0.570,0.822,0.521,1.040,0.728,0.335,0.588,0.553,��,1.5,��
2022/10/27,21:00,0.570,0.822,0.523,1.040,0.727,0.333,0.587,0.553,��,1.5,��
2022/10/27,21:10,0.571,0.823,0.521,1.041,0.727,0.334,0.589,0.555,���쐼,1.1,��
2022/10/27,21:20,0.570,0.822,0.521,1.040,0.727,0.333,0.587,0.553,��,0.9,��
2022/10/27,21:30,0.572,0.823,0.522,1.042,0.726,0.336,0.588,0.554,���쐼,1.1,��
2022/10/27,21:40,0.572,0.822,0.523,1.042,0.727,0.335,0.587,0.553,�쐼,0.9,��
2022/10/27,21:50,0.572,0.824,0.521,1.041,0.727,0.334,0.587,0.554,�쐼,0.9,��
2022/10/27,22:00,0.570,0.823,0.522,1.040,0.729,0.335,0.587,0.553,-,CALM,��
2022/10/27,22:10,0.572,0.822,0.522,1.041,0.725,0.333,0.589,0.554,-,CALM,��
2022/10/27,22:20,0.571,0.822,0.521,1.039,0.727,0.333,0.588,0.553,��,0.6,��
2022/10/27,22:30,0.570,0.823,0.520,1.039,0.728,0.334,0.587,0.553,��,1.4,��
2022/10/27,22:40,0.571,0.824,0.521,1.039,0.728,0.334,0.588,0.554,���쐼,1.4,��
2022/10/27,22:50,0.569,0.823,0.521,1.040,0.726,0.334,0.587,0.554,���쐼,1.7,��
2022/10/27,23:00,0.571,0.824,0.522,1.040,0.730,0.335,0.588,0.555,���쐼,1.7,��
2022/10/27,23:10,0.572,0.823,0.521,1.039,0.729,0.335,0.588,0.554,��,2.0,��
2022/10/27,23:20,0.571,0.823,0.521,1.039,0.729,0.334,0.588,0.554,���쐼,1.5,��
2022/10/27,23:30,0.570,0.821,0.520,1.038,0.728,0.333,0.589,0.554,��,1.5,��
2022/10/27,23:40,0.572,0.822,0.520,1.042,0.726,0.333,0.587,0.554,��,1.2,��
2022/10/27,23:50,0.569,0.821,0.520,1.038,0.727,0.333,0.587,0.554,��,1.2,��
